Temperature
22 22 22 21 21 21 20 20 20 20 19 19 19 19 19 19 19 19 19 19 19 19 19 19 18 18 18 18 18 18 18 18 18 18 17 17 17 17 17 17 17 17 17
22 22 21 21 21 21 20 20 20 20 19 19 19 19 19 19 19 19 19 19 18 18 19 19 18 18 18 18 18 18 18 18 18 18 18 17 17 17 17 17 17 17 17
22 22 22 21 21 21 21 20 20 20 20 19 19 19 19 19 19 19 19 19 19 18 18 18 18 18 18 18 18 18 18 18 18 18 18 17 17 17 17 17 17 17 17
22 22 22 22 21 21 21 20 20 20 20 19 19 19 19 19 19 19 19 18 18 18 18 18 18 18 18 18 18 18 18 18 18 18 18 18 18 17 17 17 16 16 16
23 22 22 22 22 21 21 20 20 20 20 19 19 19 19 19 19 19 19 19 18 18 18 18 18 18 18 18 18 18 18 18 18 18 18 18 18 17 17 17 17 16 16
23 23 22 22 22 21 21 21 20 20 20 20 19 19 19 19 19 19 19 19 19 18 18 18 18 18 18 18 18 18 18 18 18 18 18 18 18 18 17 17 17 16 16
23 23 22 22 22 21 21 21 20 20 20 20 19 19 19 19 19 19 19 19 19 18 18 18 18 18 18 18 18 18 18 18 18 18 18 18 18 18 18 17 17 17 16
23 23 23 22 22 22 21 21 21 20 20 20 19 19 19 19 19 19 19 19 19 18 18 18 18 18 18 18 18 18 18 18 18 18 18 18 18 18 18 17 17 17 16
23 23 23 23 22 22 22 21 21 21 20 20 20 19 19 19 19 19 19 19 19 18 18 18 18 18 18 18 18 18 18 18 18 18 18 18 18 18 17 17 17 17 16
24 24 23 23 22 22 22 22 21 21 21 20 20 20 19 19 19 19 19 19 19 18 18 18 18 18 18 18 18 18 18 18 18 18 18 18 18 17 17 17 17 17 17
24 23 23 23 23 22 22 22 21 21 21 20 20 20 19 19 19 19 19 18 18 18 18 18 18 18 18 18 18 18 17 17 17 17 17 17 17 17 17 17 17 17 17
24 24 23 23 23 22 22 22 21 21 21 20 20 20 19 19 19 19 19 18 18 18 18 18 18 18 18 18 18 17 17 17 17 17 17 17 17 17 17 17 17 17 17
24 23 23 23 23 22 22 22 21 21 21 20 20 20 19 19 19 19 18 18 18 18 18 18 18 18 18 17 17 17 17 17 17 17 17 17 17 17 17 17 17 17 16
23 23 23 23 23 23 22 22 21 21 21 20 20 20 19 19 19 19 18 18 18 18 18 18 18 17 17 17 17 17 17 17 17 17 17 17 17 17 17 17 17 16 16
23 23 23 23 23 22 22 22 21 21 21 20 20 20 19 19 19 18 18 18 18 18 18 18 18 17 17 17 17 17 17 17 17 17 17 17 16 16 16 16 16 16 16
23 23 23 22 22 22 22 22 21 21 20 20 20 20 19 19 19 18 18 18 18 18 18 18 17 17 17 17 17 17 17 17 17 17 17 16 16 16 16 16 16 16 16
23 23 22 22 22 22 22 22 21 21 20 20 20 19 19 19 19 18 18 18 18 18 18 18 17 17 17 17 17 17 17 17 17 16 16 16 16 16 16 16 16 16 15
23 23 22 22 22 22 22 21 21 21 20 20 19 19 19 19 19 18 18 18 18 18 18 17 17 17 17 17 17 17 16 16 16 16 16 16 16 16 16 16 16 16 15
23 23 22 22 22 22 21 21 21 20 20 20 19 19 19 19 18 18 18 18 18 18 17 17 17 17 17 17 17 16 16 16 16 16 16 16 16 16 16 16 16 15 15
22 22 22 22 21 21 21 21 20 20 20 20 19 19 19 18 18 18 18 18 18 18 17 17 17 17 17 17 17 16 16 16 16 16 15 15 15 15 15 15 15 15 15
22 22 21 21 21 21 20 20 20 20 19 19 19 19 19 18 18 18 18 18 17 17 17 17 17 17 17 17 16 16 16 16 16 15 15 15 15 15 15 15 15 15 15
21 21 21 21 20 20 20 20 20 20 19 19 18 18 18 18 18 18 18 17 17 17 17 17 17 16 16 16 16 16 16 16 16 15 15 15 15 15 15 15 14 14 14
20 20 20 20 20 20 20 20 20 19 19 18 18 18 18 18 17 18 17 17 17 17 17 16 16 16 16 16 16 16 16 16 15 15 15 15 15 14 14 14 14 14 14
19 20 19 19 19 19 19 19 19 19 18 18 18 18 17 17 17 17 17 17 17 17 16 16 16 16 16 16 16 16 16 15 15 15 15 15 14 14 14 14 14 14 14
19 19 19 19 19 19 18 18 18 18 18 18 17 17 17 17 17 16 16 16 16 17 17 16 16 16 16 16 16 16 15 15 15 15 14 14 14 14 14 14 14 14 14
18 18 18 18 18 18 18 18 18 18 18 17 17 17 16 16 16 16 16 16 16 16 16 16 16 16 16 15 15 15 15 15 14 14 14 14 14 14 14 14 14 13 13
Wind_Speed
9 9 9 9 8 7 7 6 5 4 3 3 3 3 2 2 2 2 4 5 5 6 5 4 3 3 3 3 3 2 2 2 2 3 2 3 2 2 2 2 3 3 4
8 9 9 9 8 8 7 6 6 5 4 3 2 2 2 2 2 2 3 5 5 5 5 4 3 3 3 3 3 3 2 1 2 3 3 2 3 2 1 1 2 2 3
13 12 10 9 9 9 8 7 6 5 4 3 3 3 3 3 2 2 1 2 4 5 4 4 3 3 3 4 4 4 4 2 0 1 3 3 2 1 2 0 1 1 2
11 11 11 10 10 10 8 7 6 5 4 4 4 4 3 3 2 2 2 1 3 4 4 4 4 3 3 3 3 4 4 4 2 1 0 2 4 3 0 2 1 0 1
13 13 12 12 11 10 9 8 7 5 4 4 5 5 3 2 2 2 3 2 1 2 3 4 4 3 3 3 2 2 3 3 3 2 1 1 1 2 3 1 1 1 1
12 12 11 10 9 9 9 8 7 5 5 5 5 5 5 4 4 3 3 2 1 1 2 3 3 3 2 2 2 2 2 2 2 2 2 2 2 2 3 2 2 1 1
11 10 10 11 11 11 10 9 9 6 5 5 5 5 5 5 5 4 3 3 2 1 1 2 2 2 2 2 2 2 2 2 2 2 2 2 2 3 3 3 2 1 1
12 11 11 12 12 12 11 10 10 7 6 6 5 4 4 4 3 3 3 3 3 2 2 2 2 2 2 2 3 2 2 2 2 2 2 2 1 2 3 3 4 2 1
13 11 11 11 12 12 12 12 11 8 8 7 6 4 4 4 4 3 3 3 2 3 3 3 2 2 2 2 3 2 2 2 2 2 2 1 1 1 1 2 4 4 2
12 11 11 11 11 11 11 11 11 10 8 7 7 6 4 4 4 3 3 3 3 2 3 3 2 2 2 2 2 2 2 2 1 1 2 1 0 1 1 1 2 3 4
12 12 11 11 10 10 10 11 10 9 8 8 6 6 5 4 4 3 3 3 3 3 3 3 3 2 2 2 2 2 2 2 2 2 2 1 1 1 1 1 1 2 3
10 11 11 10 9 10 11 11 11 11 10 8 7 6 5 5 4 3 3 3 3 3 3 3 3 2 2 2 3 3 2 2 2 1 2 1 1 1 1 1 1 2 3
8 7 8 8 9 10 10 11 11 11 10 9 8 6 5 5 5 4 4 3 3 3 3 3 3 2 2 2 2 3 2 2 2 2 2 2 2 1 1 1 1 1 2
8 7 7 8 8 8 8 10 10 11 11 10 9 8 7 6 5 5 5 4 4 4 4 3 3 2 2 2 2 3 2 2 2 2 2 2 2 3 2 2 2 2 2
8 7 7 7 7 7 6 8 8 9 10 10 10 9 8 7 6 5 5 5 5 5 4 4 2 2 3 2 3 2 2 2 1 1 1 1 2 2 3 2 3 3 2
8 8 7 7 7 8 8 7 8 8 9 10 10 8 8 7 7 6 5 5 5 4 4 4 3 2 2 3 4 4 3 2 2 1 0 0 1 1 2 3 4 4 4
7 8 8 8 7 8 9 9 8 7 8 9 9 8 9 8 7 8 6 5 5 4 4 4 3 3 2 3 4 5 4 3 2 2 1 0 0 0 0 1 1 1 3
6 6 6 6 6 6 7 7 7 6 7 8 8 8 8 8 8 7 7 6 5 5 4 4 4 3 3 4 4 5 3 2 2 2 2 2 1 1 1 1 1 1 1
7 6 6 6 6 7 8 8 7 6 7 7 7 8 8 8 8 8 7 6 5 5 4 4 5 4 4 5 5 4 2 1 2 2 2 2 2 2 3 2 1 1 3
4 5 5 5 6 5 7 7 7 7 7 7 7 7 7 8 9 8 7 6 5 5 5 5 5 5 4 5 5 5 3 2 2 2 2 3 3 3 4 3 2 2 4
4 5 6 6 6 6 7 7 7 7 7 6 6 6 7 7 8 7 6 6 6 5 5 5 4 4 5 5 5 6 4 4 3 3 3 3 3 3 4 4 4 6 4
4 5 6 5 4 6 7 6 6 5 5 5 5 6 6 6 6 6 5 5 6 6 5 4 4 3 4 5 5 7 7 6 4 4 4 3 4 4 3 3 3 4 2
3 4 6 5 4 4 6 6 5 5 5 5 5 5 6 5 5 6 6 5 5 6 6 5 5 4 3 4 7 7 7 7 4 4 4 3 3 3 2 3 3 1 1
2 3 5 6 5 4 4 4 4 6 6 6 6 5 5 5 5 5 5 6 6 6 5 6 5 4 3 4 3 4 4 4 3 3 2 2 2 2 2 2 1 2 2
2 2 4 5 5 5 4 4 5 6 5 5 4 4 4 5 5 4 4 5 6 7 7 6 6 6 5 6 8 6 4 4 4 2 1 0 0 1 1 1 2 2 1
2 2 3 3 4 4 4 4 5 6 6 5 4 4 3 4 4 4 2 2 4 5 7 8 7 6 7 7 8 8 8 7 6 4 2 2 3 3 3 3 3 3 3
Wind_Direction
167 159 152 147 140 136 131 130 128 123 113 106 108 111 124 134 135 150 157 154 149 147 144 139 136 137 142 156 153 141 135 121 119 100 65 32 41 99 120 122 135 153 164
159 161 156 151 147 148 145 140 139 138 133 138 139 136 137 142 147 139 143 153 150 150 147 143 146 143 141 141 144 139 129 127 125 129 112 48 9 8 71 118 150 153 137
168 167 161 160 155 155 156 153 151 146 146 136 109 91 80 70 80 98 127 162 160 154 151 147 142 140 144 156 162 152 144 156 218 162 143 146 201 292 353 355 147 177 168
170 170 167 166 166 168 162 153 154 150 147 137 127 124 128 139 168 164 157 139 145 148 150 149 147 145 145 152 170 164 152 148 166 276 172 161 154 153 177 340 332 218 201
175 176 174 173 171 167 161 157 153 153 150 146 144 138 133 141 127 116 118 113 112 135 143 148 149 147 144 152 166 153 148 154 161 167 164 114 96 122 145 199 295 338 283
180 180 175 169 168 165 161 157 155 159 158 149 142 144 143 136 121 118 124 122 112 96 115 135 145 148 145 154 167 164 153 160 155 155 153 148 149 170 155 176 193 217 282
177 177 175 172 170 168 167 164 162 165 168 156 150 150 148 144 143 145 149 142 128 118 130 139 143 145 156 160 159 156 157 155 153 159 162 161 174 164 156 154 169 188 275
179 178 180 177 174 172 170 168 170 172 172 166 163 156 147 148 150 154 153 157 162 170 158 134 142 148 153 152 145 140 157 147 151 150 149 152 179 159 157 160 153 141 331
178 180 180 178 175 172 174 174 174 174 176 175 165 157 157 152 151 151 144 152 160 162 148 135 137 130 131 128 129 132 153 138 139 150 145 141 178 157 162 155 155 155 173
178 183 183 181 180 178 174 173 175 177 176 175 170 166 169 163 151 141 145 149 155 148 140 134 129 124 118 110 111 117 119 114 110 122 122 129 152 119 137 165 172 162 161
178 182 188 184 177 173 173 174 173 171 173 175 173 168 166 161 153 147 160 158 151 143 142 148 145 135 126 118 118 130 126 116 104 100 112 124 147 120 137 149 150 146 139
173 179 180 175 170 172 176 176 175 176 178 177 172 170 167 162 164 168 168 159 154 148 144 141 140 143 137 132 132 141 130 127 124 132 122 117 110 96 122 129 135 147 150
154 158 161 166 174 178 178 177 178 179 178 172 169 170 171 171 176 179 176 165 155 149 142 136 138 146 142 134 139 138 135 134 141 144 138 147 125 116 123 126 125 143 132
152 154 163 166 168 168 172 175 178 178 175 172 171 175 180 179 179 176 171 169 162 153 150 148 151 154 146 137 140 132 124 122 122 126 133 138 148 163 163 146 148 137 120
158 162 166 166 161 158 161 166 173 176 175 172 176 184 184 178 174 172 173 172 171 171 165 156 154 146 147 157 151 150 139 135 127 109 132 141 145 172 174 164 166 148 145
169 169 166 162 165 168 171 166 166 173 172 178 185 184 179 175 175 176 173 171 174 171 162 168 166 159 172 164 160 153 149 146 149 168 202 137 63 162 185 182 177 168 169
167 170 174 175 176 177 173 174 170 170 172 177 182 181 180 179 180 179 174 178 184 177 167 171 164 172 192 174 163 163 164 165 180 189 197 249 5 41 180 182 150 184 200
162 169 172 174 175 169 168 166 161 161 168 174 181 182 180 183 182 180 184 187 181 174 176 178 177 177 202 190 182 173 165 160 185 186 186 194 256 283 175 144 90 329 281
173 176 170 161 154 153 159 152 157 162 168 174 178 181 179 181 182 186 192 192 182 184 185 181 179 181 207 192 183 170 161 182 232 232 215 199 215 238 171 131 138 297 299
153 153 147 135 142 145 145 145 156 166 181 187 187 182 179 181 187 192 195 193 186 193 188 190 191 193 203 199 186 171 171 191 246 264 256 232 225 227 192 176 189 245 271
139 146 137 143 156 148 144 152 161 183 192 187 183 180 181 186 190 191 192 186 186 187 190 195 203 203 202 203 192 179 181 194 210 234 248 253 238 229 215 201 209 234 244
118 133 135 141 153 148 146 157 178 186 170 167 174 182 184 190 190 183 189 186 184 187 193 192 202 211 208 206 204 195 195 193 193 217 234 239 229 226 226 222 239 244 237
139 132 140 139 140 147 153 168 184 167 158 162 174 183 184 189 186 180 183 184 185 190 197 195 206 217 215 215 208 202 198 196 205 225 223 227 229 227 237 245 245 228 187
125 124 137 143 151 158 170 177 176 165 163 172 178 179 180 187 190 188 187 187 190 194 198 200 206 210 211 210 206 201 203 203 212 237 244 244 246 226 235 256 251 220 204
135 139 155 161 168 168 173 176 169 158 160 168 173 176 184 189 189 191 199 200 204 203 199 206 199 195 213 223 202 190 197 197 197 171 126 79 245 250 265 262 252 241 225
145 147 168 175 173 172 181 183 176 166 164 169 181 182 188 190 186 185 204 240 212 210 207 205 199 210 211 204 205 205 204 195 170 149 187 216 221 223 231 237 248 242 235
Height
1519 1521 1522 1523 1524 1524 1525 1525 1526 1526 1527 1527 1527 1528 1529 1530 1530 1531 1531 1532 1533 1533 1534 1535 1536 1537 1537 1538 1539 1539 1540 1541 1541 1541 1542 1542 1543 1543 1543 1543 1543 1543 1543
1519 1520 1522 1523 1523 1524 1525 1526 1526 1527 1527 1528 1528 1529 1529 1530 1530 1531 1532 1533 1533 1534 1534 1535 1536 1537 1537 1538 1539 1539 1540 1541 1541 1541 1541 1542 1543 1542 1543 1543 1543 1543 1543
1517 1519 1520 1522 1523 1524 1525 1526 1527 1527 1528 1528 1529 1530 1530 1531 1531 1532 1532 1533 1533 1534 1534 1535 1536 1536 1537 1538 1539 1539 1540 1540 1541 1541 1541 1541 1541 1542 1543 1542 1542 1542 1542
1516 1517 1519 1521 1522 1524 1525 1526 1527 1528 1528 1529 1529 1530 1530 1530 1531 1532 1532 1533 1533 1534 1534 1535 1536 1536 1537 1538 1538 1539 1539 1540 1540 1540 1541 1541 1541 1541 1542 1543 1542 1542 1542
1514 1515 1517 1519 1521 1523 1524 1526 1527 1528 1528 1529 1529 1530 1530 1531 1531 1532 1532 1533 1533 1534 1534 1535 1535 1536 1537 1537 1538 1539 1539 1539 1540 1540 1540 1540 1541 1540 1540 1541 1541 1541 1541
1512 1514 1516 1518 1520 1522 1524 1525 1527 1528 1528 1529 1529 1530 1530 1531 1531 1532 1532 1533 1533 1534 1534 1535 1535 1536 1536 1537 1538 1538 1539 1539 1539 1539 1540 1540 1540 1539 1539 1539 1540 1540 1541
1510 1512 1514 1516 1518 1520 1522 1524 1526 1527 1528 1528 1529 1529 1530 1531 1531 1532 1532 1533 1533 1534 1534 1534 1535 1535 1536 1537 1537 1537 1538 1538 1538 1539 1539 1539 1539 1539 1539 1539 1539 1539 1540
1507 1509 1512 1514 1516 1518 1521 1523 1525 1526 1527 1528 1529 1529 1530 1531 1531 1532 1533 1533 1534 1534 1534 1534 1535 1535 1536 1536 1537 1537 1537 1538 1538 1538 1538 1538 1538 1538 1538 1538 1538 1538 1539
1504 1507 1510 1512 1514 1516 1519 1521 1523 1525 1527 1528 1529 1529 1530 1531 1531 1532 1532 1533 1534 1534 1534 1534 1534 1535 1535 1536 1536 1536 1537 1537 1537 1537 1537 1537 1537 1537 1538 1538 1538 1538 1538
1501 1504 1507 1509 1512 1515 1517 1520 1522 1524 1525 1527 1528 1529 1530 1531 1531 1531 1532 1532 1533 1533 1534 1534 1534 1535 1535 1535 1535 1536 1536 1536 1536 1536 1536 1536 1537 1536 1536 1537 1537 1537 1537
1498 1502 1505 1507 1510 1514 1516 1518 1520 1522 1524 1525 1527 1528 1529 1530 1531 1531 1531 1532 1532 1533 1533 1533 1534 1534 1534 1535 1535 1535 1535 1535 1536 1536 1536 1535 1535 1535 1535 1535 1535 1536 1536
1497 1500 1503 1506 1509 1512 1514 1516 1518 1520 1522 1524 1525 1527 1528 1529 1530 1530 1531 1531 1532 1532 1532 1533 1533 1534 1534 1534 1534 1535 1535 1534 1534 1534 1534 1534 1534 1534 1535 1534 1534 1534 1534
1497 1499 1502 1504 1507 1509 1512 1514 1516 1518 1520 1522 1524 1525 1526 1527 1528 1529 1530 1531 1531 1531 1532 1532 1533 1533 1533 1533 1534 1534 1534 1534 1534 1534 1533 1533 1533 1533 1533 1533 1533 1533 1533
1496 1498 1500 1502 1505 1507 1509 1511 1513 1516 1518 1520 1521 1523 1524 1525 1527 1528 1529 1530 1530 1531 1531 1531 1532 1532 1532 1532 1533 1533 1533 1533 1533 1533 1533 1533 1532 1532 1532 1532 1532 1532 1531
1495 1497 1499 1501 1502 1504 1507 1509 1511 1513 1515 1517 1519 1520 1522 1524 1525 1526 1527 1528 1529 1529 1530 1531 1531 1531 1531 1531 1532 1532 1532 1532 1532 1532 1532 1531 1531 1531 1531 1531 1531 1531 1530
1492 1495 1497 1498 1500 1501 1504 1506 1508 1510 1513 1514 1516 1518 1520 1521 1523 1524 1525 1526 1527 1528 1528 1529 1529 1529 1530 1530 1531 1531 1531 1531 1531 1531 1530 1530 1530 1530 1530 1530 1530 1530 1529
1490 1492 1494 1496 1498 1499 1501 1503 1505 1507 1509 1511 1513 1515 1517 1519 1520 1521 1523 1524 1525 1526 1526 1527 1528 1528 1529 1529 1529 1530 1530 1530 1530 1530 1529 1529 1529 1529 1529 1528 1528 1528 1528
1488 1490 1492 1493 1495 1497 1499 1501 1503 1505 1506 1508 1510 1512 1514 1516 1517 1519 1520 1521 1522 1523 1524 1525 1526 1526 1527 1528 1528 1528 1529 1528 1528 1528 1528 1528 1528 1528 1527 1527 1526 1526 1526
1486 1488 1489 1491 1493 1495 1497 1499 1501 1503 1504 1505 1507 1509 1511 1512 1514 1516 1517 1518 1520 1521 1522 1522 1523 1524 1525 1525 1526 1527 1527 1527 1527 1527 1527 1526 1526 1526 1526 1525 1524 1524 1524
1484 1485 1488 1489 1491 1492 1494 1496 1498 1500 1501 1503 1504 1506 1508 1509 1510 1512 1514 1515 1517 1518 1519 1520 1521 1522 1522 1523 1524 1524 1524 1524 1524 1525 1524 1524 1524 1524 1523 1523 1523 1522 1522
1483 1484 1485 1487 1489 1490 1492 1494 1495 1497 1499 1500 1502 1504 1505 1506 1508 1509 1511 1512 1513 1515 1516 1517 1518 1519 1520 1520 1521 1521 1521 1521 1521 1521 1521 1522 1522 1521 1521 1521 1520 1520 1520
1481 1482 1483 1485 1487 1488 1490 1491 1493 1494 1496 1498 1500 1501 1502 1503 1505 1506 1507 1509 1510 1511 1512 1513 1514 1515 1516 1517 1517 1518 1518 1518 1518 1518 1518 1518 1519 1519 1518 1518 1518 1517 1517
1480 1481 1482 1483 1485 1486 1488 1489 1491 1492 1494 1496 1497 1498 1499 1500 1502 1502 1503 1505 1506 1507 1508 1510 1510 1511 1512 1513 1514 1514 1515 1515 1515 1515 1515 1515 1516 1516 1516 1515 1515 1515 1514
1479 1480 1481 1482 1483 1484 1486 1487 1488 1490 1491 1492 1494 1495 1496 1497 1498 1500 1500 1501 1502 1503 1505 1506 1506 1507 1508 1509 1510 1510 1510 1511 1511 1511 1512 1512 1513 1513 1512 1512 1512 1511 1511
1479 1480 1480 1480 1481 1483 1484 1484 1486 1487 1488 1489 1490 1492 1493 1494 1495 1496 1497 1498 1499 1500 1501 1502 1503 1504 1505 1506 1507 1507 1507 1507 1507 1508 1508 1508 1509 1509 1508 1508 1508 1507 1507
1477 1478 1479 1479 1480 1481 1482 1482 1483 1484 1485 1485 1487 1488 1489 1490 1492 1492 1493 1494 1496 1497 1498 1499 1500 1501 1502 1503 1503 1504 1504 1504 1504 1504 1504 1504 1504 1504 1504 1504 1504 1503 1503